DAL2134 KMYR-TXKF

Flight info

Callsign DAL2134
Flight time N/A
Altitude 35000
Route RAPZZ DCT OHPEA AR8 OXANA/M078F350 M325 ENAPI MOMOM1
Aircraft A321/M-SDE3FGHIRWY/LB1

Departure

Time N/A
Airport Myrtle Beach International Airport (KMYR)

Arrival

Time 2026-04-26 14:48
Airport L.F. Wade International Airport (TXKF)
Time Latitude Longitude Altitude Speed Heading
2026-04-26 14:03 33.58423 -70.15304 24196 ft 490 kts 103°
2026-04-26 14:03 33.57710 -70.11296 24474 ft 492 kts 103°
2026-04-26 14:03 33.57002 -70.07283 24756 ft 495 kts 103°
2026-04-26 14:04 33.56289 -70.03221 25031 ft 497 kts 103°
2026-04-26 14:04 33.55580 -69.99166 25314 ft 499 kts 103°
2026-04-26 14:04 33.54875 -69.95146 25616 ft 500 kts 103°
2026-04-26 14:04 33.54155 -69.91066 25920 ft 501 kts 103°
2026-04-26 14:05 33.53424 -69.86977 26189 ft 503 kts 103°
2026-04-26 14:05 33.52688 -69.82882 26491 ft 502 kts 103°
2026-04-26 14:05 33.51952 -69.78792 26870 ft 501 kts 103°
2026-04-26 14:05 33.51218 -69.74712 27227 ft 499 kts 103°
2026-04-26 14:06 33.50487 -69.70652 27568 ft 498 kts 103°
2026-04-26 14:06 33.49758 -69.66591 27906 ft 497 kts 103°
2026-04-26 14:06 33.49032 -69.62555 28236 ft 497 kts 103°
2026-04-26 14:06 33.48302 -69.58507 28567 ft 496 kts 103°
2026-04-26 14:07 33.47571 -69.54470 28902 ft 494 kts 103°
2026-04-26 14:07 33.46845 -69.50448 29236 ft 493 kts 103°
2026-04-26 14:07 33.46121 -69.46434 29564 ft 492 kts 103°
2026-04-26 14:07 33.45407 -69.42488 29880 ft 490 kts 103°
2026-04-26 14:08 33.44683 -69.38511 30186 ft 489 kts 103°
2026-04-26 14:08 33.43952 -69.34531 30478 ft 489 kts 103°
2026-04-26 14:08 33.43220 -69.30558 30750 ft 488 kts 103°
2026-04-26 14:08 33.42488 -69.26588 31018 ft 488 kts 103°
2026-04-26 14:09 33.41759 -69.22619 31289 ft 488 kts 103°
2026-04-26 14:09 33.41026 -69.18633 31554 ft 488 kts 103°
2026-04-26 14:09 33.40300 -69.14694 31820 ft 488 kts 104°
2026-04-26 14:09 33.39614 -69.10988 32066 ft 488 kts 104°
2026-04-26 14:10 33.38884 -69.07029 32335 ft 488 kts 104°
2026-04-26 14:10 33.38151 -69.03064 32589 ft 488 kts 104°
2026-04-26 14:10 33.37416 -68.99104 32845 ft 488 kts 104°
2026-04-26 14:10 33.36680 -68.95140 33099 ft 487 kts 104°
2026-04-26 14:11 33.35200 -68.87229 33582 ft 488 kts 104°
2026-04-26 14:11 33.34455 -68.83284 33820 ft 487 kts 104°
2026-04-26 14:11 33.33709 -68.79317 34056 ft 487 kts 104°
2026-04-26 14:12 33.32977 -68.75411 34281 ft 487 kts 104°
2026-04-26 14:12 33.32235 -68.71458 34518 ft 487 kts 104°
2026-04-26 14:12 33.31492 -68.67508 34753 ft 486 kts 104°
2026-04-26 14:12 33.30748 -68.63567 34972 ft 486 kts 104°
2026-04-26 14:13 33.29252 -68.55667 35105 ft 486 kts 104°
2026-04-26 14:13 33.28500 -68.51730 35110 ft 486 kts 104°
2026-04-26 14:14 33.27007 -68.43896 35108 ft 486 kts 104°
2026-04-26 14:14 33.25507 -68.36024 35111 ft 486 kts 104°
2026-04-26 14:15 33.23999 -68.28149 35110 ft 486 kts 104°
2026-04-26 14:15 33.22484 -68.20294 35110 ft 486 kts 104°
2026-04-26 14:16 33.20966 -68.12431 35111 ft 486 kts 102°
2026-04-26 14:16 33.20356 -68.04420 35108 ft 487 kts 93°
2026-04-26 14:17 33.20045 -67.96345 34931 ft 488 kts 93°
2026-04-26 14:17 33.19883 -67.92257 34679 ft 488 kts 93°
2026-04-26 14:17 33.19719 -67.88215 34426 ft 488 kts 93°
2026-04-26 14:17 33.19552 -67.84161 34178 ft 488 kts 94°
2026-04-26 14:18 33.19381 -67.80113 33929 ft 488 kts 94°
2026-04-26 14:18 33.19207 -67.76053 33682 ft 489 kts 94°
2026-04-26 14:18 33.19033 -67.72004 33431 ft 489 kts 93°
2026-04-26 14:18 33.18860 -67.67940 33190 ft 489 kts 93°
2026-04-26 14:19 33.18689 -67.63886 32934 ft 489 kts 93°
2026-04-26 14:19 33.18518 -67.59843 32682 ft 489 kts 94°
2026-04-26 14:19 33.18344 -67.55840 32436 ft 489 kts 93°
2026-04-26 14:19 33.18166 -67.51794 32183 ft 489 kts 94°
2026-04-26 14:20 33.17988 -67.47735 31933 ft 489 kts 93°
2026-04-26 14:20 33.17810 -67.43693 31686 ft 489 kts 94°
2026-04-26 14:20 33.17630 -67.39640 31441 ft 489 kts 93°
2026-04-26 14:20 33.17451 -67.35577 31180 ft 489 kts 93°
2026-04-26 14:21 33.17271 -67.31523 30927 ft 489 kts 93°
2026-04-26 14:21 33.17088 -67.27461 30680 ft 489 kts 93°
2026-04-26 14:21 33.16901 -67.23406 30429 ft 490 kts 94°
2026-04-26 14:21 33.16712 -67.19350 30180 ft 489 kts 94°
2026-04-26 14:22 33.16522 -67.15281 29929 ft 490 kts 93°
2026-04-26 14:22 33.16333 -67.11223 29678 ft 490 kts 94°
2026-04-26 14:22 33.16143 -67.07168 29428 ft 491 kts 94°
2026-04-26 14:22 33.15949 -67.03144 29181 ft 491 kts 94°
2026-04-26 14:23 33.15753 -66.99076 28931 ft 492 kts 94°
2026-04-26 14:23 33.15556 -66.95009 28681 ft 492 kts 94°
2026-04-26 14:23 33.15358 -66.90926 28436 ft 493 kts 94°
2026-04-26 14:23 33.15158 -66.86847 28179 ft 493 kts 94°
2026-04-26 14:24 33.14959 -66.82758 27927 ft 493 kts 94°
2026-04-26 14:24 33.14761 -66.78660 27676 ft 494 kts 94°
2026-04-26 14:24 33.14559 -66.74564 27425 ft 494 kts 94°
2026-04-26 14:24 33.14350 -66.70467 27175 ft 495 kts 94°
2026-04-26 14:25 33.14135 -66.66366 26922 ft 495 kts 94°
2026-04-26 14:25 33.13921 -66.62254 26665 ft 496 kts 94°
2026-04-26 14:25 33.13708 -66.58143 26420 ft 497 kts 94°
2026-04-26 14:25 33.13499 -66.54037 26182 ft 497 kts 94°
2026-04-26 14:26 33.13290 -66.49954 25912 ft 485 kts 95°
2026-04-26 14:26 33.12792 -66.46021 25661 ft 483 kts 104°
2026-04-26 14:26 33.12012 -66.42070 25417 ft 493 kts 104°
2026-04-26 14:26 33.11219 -66.38069 25167 ft 496 kts 104°
2026-04-26 14:27 33.10429 -66.34112 24920 ft 498 kts 105°
2026-04-26 14:27 33.09621 -66.30103 24670 ft 499 kts 105°
2026-04-26 14:27 33.08805 -66.26065 24420 ft 499 kts 105°
2026-04-26 14:27 33.07992 -66.22050 24170 ft 500 kts 105°
2026-04-26 14:28 33.07179 -66.18021 23918 ft 499 kts 105°
2026-04-26 14:28 33.06371 -66.14008 23671 ft 498 kts 105°
2026-04-26 14:28 33.05561 -66.09994 23420 ft 496 kts 105°
2026-04-26 14:28 33.04752 -66.06000 22933 ft 493 kts 105°
2026-04-26 14:29 33.03952 -66.02067 22045 ft 492 kts 105°
2026-04-26 14:29 33.03142 -65.98094 21263 ft 487 kts 105°
2026-04-26 14:29 33.02348 -65.94187 20572 ft 481 kts 104°
2026-04-26 14:29 33.01566 -65.90329 19749 ft 478 kts 104°
2026-04-26 14:30 33.00789 -65.86508 19128 ft 470 kts 104°
2026-04-26 14:30 33.00017 -65.82727 18379 ft 467 kts 104°
2026-04-26 14:30 32.99253 -65.79009 17638 ft 462 kts 104°
2026-04-26 14:30 32.98488 -65.75307 17044 ft 455 kts 104°
2026-04-26 14:31 32.97731 -65.71648 16201 ft 454 kts 104°
2026-04-26 14:31 32.96985 -65.68036 15651 ft 443 kts 104°
2026-04-26 14:31 32.96275 -65.64592 14643 ft 425 kts 104°
2026-04-26 14:31 32.95601 -65.61314 14253 ft 399 kts 104°
2026-04-26 14:32 32.94936 -65.58103 13710 ft 401 kts 104°
2026-04-26 14:32 32.94254 -65.54825 13173 ft 410 kts 104°
2026-04-26 14:32 32.93585 -65.51606 12689 ft 389 kts 104°
2026-04-26 14:32 32.92960 -65.48585 12417 ft 358 kts 104°
2026-04-26 14:33 32.92389 -65.45827 12265 ft 329 kts 104°
2026-04-26 14:33 32.91857 -65.43271 11916 ft 313 kts 104°
2026-04-26 14:33 32.91340 -65.40801 11354 ft 310 kts 104°
2026-04-26 14:33 32.90813 -65.38287 11075 ft 307 kts 104°
2026-04-26 14:34 32.90292 -65.35808 11008 ft 307 kts 104°
2026-04-26 14:34 32.89769 -65.33351 10891 ft 308 kts 107°
2026-04-26 14:34 32.88836 -65.31104 10629 ft 301 kts 129°
2026-04-26 14:34 32.87341 -65.29465 10375 ft 292 kts 149°
2026-04-26 14:35 32.85590 -65.28239 9916 ft 294 kts 152°
2026-04-26 14:35 32.83801 -65.27022 9466 ft 295 kts 152°
2026-04-26 14:35 32.81985 -65.25796 9013 ft 297 kts 152°
2026-04-26 14:35 32.80181 -65.24579 8544 ft 299 kts 152°
2026-04-26 14:36 32.78391 -65.23367 8105 ft 299 kts 151°
2026-04-26 14:36 32.76588 -65.22142 7660 ft 300 kts 151°
2026-04-26 14:36 32.74796 -65.20924 7230 ft 300 kts 151°
2026-04-26 14:36 32.72991 -65.19701 6782 ft 300 kts 151°
2026-04-26 14:37 32.71195 -65.18483 6345 ft 301 kts 151°
2026-04-26 14:37 32.69375 -65.17253 5896 ft 300 kts 152°
2026-04-26 14:37 32.67606 -65.16055 5419 ft 285 kts 151°
2026-04-26 14:37 32.65927 -65.14913 4982 ft 271 kts 150°
2026-04-26 14:38 32.64329 -65.13827 4531 ft 259 kts 150°
2026-04-26 14:38 32.62802 -65.12790 4099 ft 248 kts 150°
2026-04-26 14:38 32.61364 -65.11815 4007 ft 228 kts 150°
2026-04-26 14:38 32.60456 -65.11199 4051 ft 226 kts 150°
2026-04-26 14:39 32.58636 -65.09966 4019 ft 224 kts 150°
2026-04-26 14:39 32.57280 -65.09046 3940 ft 225 kts 150°
2026-04-26 14:39 32.55924 -65.08129 3820 ft 224 kts 150°
2026-04-26 14:39 32.54609 -65.07144 3721 ft 223 kts 143°
2026-04-26 14:40 32.53371 -65.06043 3614 ft 222 kts 142°
2026-04-26 14:40 32.52148 -65.04930 3479 ft 221 kts 141°
2026-04-26 14:40 32.50939 -65.03818 3362 ft 220 kts 141°
2026-04-26 14:40 32.49755 -65.02733 3238 ft 219 kts 142°
2026-04-26 14:41 32.48544 -65.01626 3124 ft 218 kts 141°
2026-04-26 14:41 32.47343 -65.00528 3042 ft 217 kts 141°
2026-04-26 14:41 32.46149 -64.99435 3030 ft 217 kts 141°
2026-04-26 14:41 32.44955 -64.98345 3022 ft 216 kts 141°
2026-04-26 14:42 32.43920 -64.97077 3016 ft 210 kts 124°
2026-04-26 14:42 32.43453 -64.96128 2947 ft 195 kts 114°
2026-04-26 14:42 32.43045 -64.94682 2846 ft 176 kts 105°
2026-04-26 14:42 32.42710 -64.93338 2726 ft 166 kts 106°
2026-04-26 14:43 32.42381 -64.92041 2591 ft 163 kts 106°
2026-04-26 14:43 32.42055 -64.90764 2472 ft 161 kts 106°
2026-04-26 14:43 32.41738 -64.89515 2359 ft 153 kts 106°
2026-04-26 14:43 32.41440 -64.88329 2249 ft 149 kts 105°
2026-04-26 14:44 32.41146 -64.87162 2137 ft 147 kts 106°
2026-04-26 14:44 32.40848 -64.86004 2027 ft 146 kts 107°
2026-04-26 14:44 32.40551 -64.84857 1918 ft 146 kts 108°
2026-04-26 14:44 32.40255 -64.83712 1861 ft 145 kts 107°
2026-04-26 14:45 32.39962 -64.82581 1815 ft 145 kts 107°
2026-04-26 14:45 32.39762 -64.81810 1824 ft 145 kts 107°
2026-04-26 14:45 32.39371 -64.80292 1814 ft 146 kts 107°
2026-04-26 14:45 32.39057 -64.79157 1802 ft 146 kts 114°
2026-04-26 14:46 32.38531 -64.78130 1793 ft 146 kts 123°
2026-04-26 14:46 32.38045 -64.77076 1619 ft 146 kts 112°
2026-04-26 14:46 32.37745 -64.75937 1314 ft 145 kts 103°
2026-04-26 14:46 32.37571 -64.74767 1006 ft 144 kts 97°
2026-04-26 14:47 32.37451 -64.73596 716 ft 143 kts 102°
2026-04-26 14:47 32.37218 -64.72455 489 ft 142 kts 106°
2026-04-26 14:47 32.37006 -64.71311 361 ft 143 kts 102°
2026-04-26 14:47 32.36800 -64.70170 208 ft 138 kts 103°
2026-04-26 14:48 32.36616 -64.69078 7 ft 129 kts 101°
2026-04-26 14:48 32.36472 -64.68235 9 ft 69 kts 101°
2026-04-26 14:48 32.36412 -64.67881 4 ft 21 kts 94°
2026-04-26 14:48 32.36503 -64.67812 5 ft 16 kts
2026-04-26 14:49 32.36553 -64.67899 5 ft 15 kts 280°
2026-04-26 14:49 32.36577 -64.68053 5 ft 23 kts 280°
2026-04-26 14:49 32.36611 -64.68266 5 ft 30 kts 281°
2026-04-26 14:49 32.36650 -64.68500 6 ft 29 kts 281°
2026-04-26 14:50 32.36691 -64.68733 6 ft 29 kts 282°
2026-04-26 14:50 32.36690 -64.68953 6 ft 27 kts 243°
2026-04-26 14:50 32.36622 -64.69156 4 ft 27 kts 249°
2026-04-26 14:50 32.36550 -64.69355 4 ft 26 kts 246°
2026-04-26 14:51 32.36483 -64.69553 4 ft 26 kts 253°
2026-04-26 14:51 32.36414 -64.69745 5 ft 25 kts 246°
2026-04-26 14:51 32.36377 -64.69918 5 ft 20 kts 296°
2026-04-26 14:51 32.36457 -64.70032 5 ft 17 kts 287°
2026-04-26 14:52 32.36433 -64.70164 4 ft 16 kts 250°
2026-04-26 14:52 32.36395 -64.70289 4 ft 16 kts 250°
2026-04-26 14:52 32.36363 -64.70382 4 ft 0 kts 248°